Brno, Czech Republic

5:24 AM CEST on April 25, 2018 (GMT +0200)
Turany

Weather History for LKTB - June, 2013

Change the Weather History Date:

Tuesday, June 11, 2013

  Actual Average Record
Temperature  
Mean Temperature 61 °F -  
Max Temperature 67 °F 73 °F - ()
Min Temperature 55 °F 53 °F - ()
Degree Days  
Heating Degree Days 4    
Growing Degree Days 11 (Base 50)    
Moisture  
Dew Point 54 °F    
Average Humidity 81    
Maximum Humidity 94    
Minimum Humidity 45    
Precipitation  
Precipitation 0.12 in 0.09 in - ()
Sea Level Pressure  
Sea Level Pressure 29.90 in    
Wind  
Wind Speed 7 mph ()    
Max Wind Speed 15 mph    
Max Gust Speed -    
Visibility 6.2 miles    
Events Rain    
T = Trace of Precipitation, MM = Missing Value Source: Averaged Metar Reports

Daily Weather History Graph

Daily Weather History Graph

Search for Another Location

Airport or City:

Astronomy

Jun. 11, 2013 Rise Set
Actual Time 4:48 AM CEST 8:57 PM CEST
Civil Twilight 4:05 AM CEST 9:40 PM CEST
Nautical Twilight 3:04 AM CEST 10:41 PM CEST
Astronomical Twilight 1:25 AM CEST 12:20 AM CEST
Moon 7:25 AM CEST (6/11) 10:37 PM CEST (6/11)
Length of Visible Light 17h 34m
Length of Day
16h 09m
Waxing Crescent, 7% of the Moon is Illuminated
Jun 11
Waxing Crescent
Jun 16
First Quarter
Jun 23
Full
Jun 30
Last Quarter
Jul 8
New

Hourly Weather History & Observations

Time (CEST) Temp. Dew Point Humidity Pressure Visibility Wind Dir Wind Speed Gust Speed Precip Events Conditions
12:00 AM 60.8 °F 57.2 °F 88% 29.80 in 6.2 mi NNW 5.8 mph - N/A   Mostly Cloudy
12:30 AM 60.8 °F 57.2 °F 88% 29.80 in 6.2 mi NNW 5.8 mph - N/A Rain Light Rain Showers
1:00 AM 60.8 °F 57.2 °F 88% 29.80 in 6.2 mi NNW 5.8 mph - N/A Rain Light Rain Showers
1:30 AM 59.0 °F 57.2 °F 94% 29.80 in 6.2 mi NW 6.9 mph - N/A Rain Light Rain Showers
2:00 AM 59 °F 57 °F 91% 29.80 in 6 mi NW 11.2 mph - - Rain Light Rain
2:00 AM 59.0 °F 57.2 °F 94% 29.80 in 6.2 mi NW 8.1 mph - N/A Rain Light Rain
2:30 AM 59.0 °F 55.4 °F 88% 29.80 in 6.2 mi NNW 9.2 mph - N/A Rain Light Rain
3:00 AM 59.0 °F 55.4 °F 88% 29.80 in 6.2 mi NNW 9.2 mph - N/A Rain Light Rain
3:30 AM 57.2 °F 55.4 °F 94% 29.80 in 6.2 mi NNW 9.2 mph - N/A Rain Light Rain
4:00 AM 57.2 °F 53.6 °F 88% 29.80 in 6.2 mi NNW 10.4 mph - N/A Rain Light Rain
4:30 AM 57.2 °F 53.6 °F 88% 29.80 in 4.3 mi NNW 10.4 mph - N/A Rain Light Rain
4:40 AM 55.4 °F 53.6 °F 94% 29.80 in 3.1 mi North 15.0 mph - N/A Rain Rain
5:00 AM 55.4 °F 53.6 °F 94% 29.80 in 4.3 mi NNW 10.4 mph - N/A Rain Rain
5:30 AM 55.4 °F 53.6 °F 94% 29.80 in 5.0 mi NNW 9.2 mph - N/A Rain Rain
6:00 AM 55.4 °F 53.6 °F 94% 29.83 in 5.0 mi NNW 8.1 mph - N/A Rain Rain
6:30 AM 55.4 °F 53.6 °F 94% 29.83 in 6.2 mi NW 4.6 mph - N/A Rain Light Rain
7:00 AM 57.2 °F 53.6 °F 88% 29.83 in 6.2 mi NNW 4.6 mph - N/A Rain Light Rain
7:30 AM 57.2 °F 53.6 °F 88% 29.83 in 6.2 mi NNW 6.9 mph - N/A Rain Light Rain
8:00 AM 57 °F 53 °F 83% 29.85 in 6 mi NW 2.2 mph - - Rain Rain
8:00 AM 57.2 °F 53.6 °F 88% 29.86 in 6.2 mi Variable 2.3 mph - N/A Rain Light Rain
8:30 AM 57.2 °F 53.6 °F 88% 29.86 in 6.2 mi NW 4.6 mph - N/A Rain Light Rain
9:00 AM 57.2 °F 53.6 °F 88% 29.86 in 6.2 mi NW 5.8 mph - N/A Rain Light Rain
9:30 AM 57.2 °F 53.6 °F 88% 29.86 in 6.2 mi NW 6.9 mph - N/A Rain Light Rain
10:00 AM 59.0 °F 55.4 °F 88% 29.89 in 6.2 mi NW 6.9 mph - N/A Rain Light Rain
10:30 AM 60.8 °F 55.4 °F 82% 29.89 in 6.2 mi NNW 8.1 mph - N/A Rain Light Rain
11:00 AM 60.8 °F 55.4 °F 82% 29.89 in 6.2 mi NNW 5.8 mph - N/A   Scattered Clouds
11:30 AM 60.8 °F 55.4 °F 82% 29.92 in 6.2 mi NNW 5.8 mph - N/A   Mostly Cloudy
12:00 PM 60.8 °F 55.4 °F 82% 29.92 in 6.2 mi North 5.8 mph - N/A   Mostly Cloudy
12:30 PM 62.6 °F 55.4 °F 77% 29.92 in 6.2 mi NE 4.6 mph - N/A   Scattered Clouds
1:00 PM 64.4 °F 55.4 °F 73% 29.92 in 6.2 mi NE 6.9 mph - N/A   Mostly Cloudy
1:30 PM 64.4 °F 53.6 °F 68% 29.92 in 6.2 mi NE 10.4 mph - N/A   Scattered Clouds
2:00 PM 63 °F 54 °F 66% 29.92 in 16 mi East 11.2 mph - -   Partly Cloudy
2:00 PM 64.4 °F 53.6 °F 68% 29.92 in 6.2 mi ENE 10.4 mph - N/A   Scattered Clouds
2:17 PM 62.6 °F 55.4 °F 77% 29.92 in 6.2 mi East 9.2 mph - N/A Rain Light Rain
2:30 PM 62.6 °F 55.4 °F 77% 29.92 in 6.2 mi East 10.4 mph - N/A Rain Light Rain
3:00 PM 64.4 °F 55.4 °F 73% 29.95 in 6.2 mi ENE 5.8 mph - N/A   Mostly Cloudy
3:30 PM 64.4 °F 55.4 °F 73% 29.95 in 6.2 mi North 6.9 mph - N/A   Mostly Cloudy
4:00 PM 62.6 °F 55.4 °F 77% 29.95 in 6.2 mi SW 5.8 mph - N/A   Partly Cloudy
4:30 PM 64.4 °F 53.6 °F 68% 29.95 in - WSW 6.9 mph - N/A   Clear
4:49 PM 64.4 °F 51.8 °F 64% 29.95 in 6.2 mi WNW 8.1 mph - N/A Rain Light Rain Showers
5:00 PM 64.4 °F 51.8 °F 64% 29.95 in 6.2 mi WNW 6.9 mph - N/A Rain Light Rain Showers
5:30 PM 62.6 °F 53.6 °F 72% 29.95 in 6.2 mi NW 6.9 mph - N/A Rain Light Rain Showers
6:00 PM 64.4 °F 53.6 °F 68% 29.95 in 6.2 mi NW 4.6 mph - N/A   Scattered Clouds
6:30 PM 66.2 °F 50.0 °F 56% 29.95 in - Variable 2.3 mph - N/A   Clear
7:00 PM 64.4 °F 50.0 °F 59% 29.95 in - NNE 8.1 mph - N/A   Clear
7:30 PM 62.6 °F 50.0 °F 63% 29.95 in - NNE 6.9 mph - N/A   Clear
8:00 PM 63 °F 47 °F 45% 29.97 in 25 mi NNE 6.7 mph - -   Scattered Clouds
8:00 PM 62.6 °F 50.0 °F 63% 29.98 in - NNE 6.9 mph - N/A   Clear
8:30 PM 59.0 °F 53.6 °F 82% 29.98 in - East 8.1 mph - N/A   Clear
9:00 PM 57.2 °F 51.8 °F 82% 30.01 in - East 6.9 mph - N/A   Clear
9:30 PM 57.2 °F 51.8 °F 82% 30.01 in - ENE 6.9 mph - N/A   Clear
10:00 PM 55.4 °F 51.8 °F 88% 30.01 in - ENE 6.9 mph - N/A   Clear
10:30 PM 55.4 °F 51.8 °F 88% 30.04 in - NNE 5.8 mph - N/A   Clear
11:00 PM 55.4 °F 51.8 °F 88% 30.04 in - NNW 3.5 mph - N/A   Clear
11:30 PM 55.4 °F 50.0 °F 82% 30.04 in - North 3.5 mph - N/A   Clear